SL-16 DEB

Satellite information

Favourite Embed

Satellite Type and Status

DEBRISIN ORBIT

Key statistics

Satellite SL-16 DEB at a glance.

Uptime

12041

Days in orbit

Revolutions

≈ 13.9

Per day

Orbit

LEO

Low Earth Orbit

Inclination

71.2

Latest

Satellite identification and parameters

Extended collection of information and parameters for SL-16 DEB.

Object identification

Identified? True

Debris? True

Object name: SL-16 DEB

International designator: 1992-093KS

Object number (NORAD): 39726

Object ID (CCSDS): 39726

Country: COMMONWEALTH OF INDEPENDENT STATES (CIS)

Current information (Y/N): Y

RCS size: SMALL

Orbital parameters

Period: 103.501 minutes

Inclination: 71.1584 deg

SMA: 7302.255 km

Apoapsis: 1014.711 km

Periapsis: 833.529 km

RAAN: 294.7124 deg

Eccentricy: 0.01240588

Argument of periapsis: 271.0974 deg

Mean anomaly: 265.874 deg

Mean motion: 13.91288727 rev/day

Mean motion (dot): 0.00000215 rev/day2

B* drag term: 0.00019358575 1/REarth

Two-line elements (TLE)

Creation date: Dec. 11, 2025, 7:14 p.m.

Reference frame: TEME

Reference center: EARTH

Epoch: Dec. 11, 2025, 3:16 p.m. UTC

TLE line 0: 0 SL-16 DEB

TLE line 1: 1 39726U 92093KS 25345.63631998 .00000215 00000-0 19359-3 0 9992

TLE line 2: 2 39726 71.1584 294.7124 0124059 271.0974 265.8740 13.91288727591448

Live tracking on map

Real-time ground track for satellite SL-16 DEB.

In-orbit conjunctions

A list of the most updated potential collisions computed for object SL-16 DEB.

Target Orbit TCA Probability of collision Miss distance Type
THOR BURNER 2 R/B SSO 2025-06-07 08:11:28 0.0001367337 362.0 (m) ROCKET BODY
CZ-6A DEB LEO 2025-02-25 06:29:57 0.0001638524 295.0 (m) DEBRIS

Associated space launch

Second generation ELING satellite

SL-16 DEB was lifted into orbit during the mission ‘Zenit-2 | Tselina-2 12’, on board a Zenit-2 space rocket.

The launch took place on Dec. 25, 1992, 5:56 a.m. from 45/1.

For more information about the launch, click the button.

Launch to space Zenit-2 | Tselina-2 12
Zenit-2 | Tselina-2 12

Agency: N/A

Status: Launch Successful

Launch date: Dec. 25, 1992, 5:56 a.m. UTC

Rocket: Zenit-2

Launch pad: 45/1

Location: Baikonur Cosmodrome, Republic of Kazakhstan

...

Latest news about this satellite

There are no fresh news available about this satellite. Check back as we update our databases every day.


Newsletter sign-up

Weekly statistics, charts and insights to help you stay on top of the space industry.